W0WC Weather Reports


time (UTC)temp
C
wind
direction
speed
KPH
gust
KPH
rain 1hr
cm
rain 24hr
cm
rain mn
cm
humidity
%
barometer
mb
20260507174731 18 303 3.2 3.2 0.00 0.00 0.00 43 1017.9
20260507174229 18 146 8.0 11.3 0.00 0.00 0.00 41 1018.0
20260507173726 17 179 6.4 9.7 0.00 0.00 0.00 41 1018.0
20260507173223 18 180 6.4 6.4 0.00 0.00 0.00 44 1018.1
20260507172719 18 187 6.4 11.3 0.00 0.00 0.00 39 1018.4
20260507172216 18 7 3.2 3.2 0.00 0.00 0.00 42 1018.3
20260507171716 18 355 3.2 3.2 0.00 0.00 0.00 42 1018.6
20260507171214 18 231 6.4 12.9 0.00 0.00 0.00 41 1018.7
20260507170711 18 19 1.6 3.2 0.00 0.00 0.00 42 1018.6
20260507170208 18 64 4.8 6.4 0.00 0.00 0.00 41 1018.7
20260507165703 18 199 6.4 9.7 0.00 0.00 0.00 41 1018.9
20260507165200 17 261 4.8 4.8 0.00 0.00 0.00 40 1019.0
20260507164656 17 240 9.7 11.3 0.00 0.00 0.00 40 1019.0
20260507164153 17 184 8.0 9.7 0.00 0.00 0.00 42 1019.2
20260507163650 17 188 6.4 9.7 0.00 0.00 0.00 39 1019.0
20260507163148 17 165 4.8 6.4 0.00 0.00 0.00 42 1019.1
20260507162644 17 210 3.2 4.8 0.00 0.00 0.00 41 1018.9
20260507162140 17 230 9.7 12.9 0.00 0.00 0.00 40 1019.1
20260507161636 17 324 1.6 3.2 0.00 0.00 0.00 40 1019.0
20260507161133 17 231 1.6 3.2 0.00 0.00 0.00 41 1019.2
20260507160629 17 17 1.6 1.6 0.00 0.00 0.00 42 1018.9
20260507160126 17 191 8.0 11.3 0.00 0.00 0.00 40 1019.1
20260507155622 17 13 1.6 1.6 0.00 0.00 0.00 43 1019.1
20260507155119 17 59 3.2 9.7 0.00 0.00 0.00 40 1019.1
20260507154615 16 125 1.6 3.2 0.00 0.00 0.00 43 1019.0
20260507154112 16 212 6.4 6.4 0.00 0.00 0.00 42 1019.2
20260507153604 17 301 3.2 3.2 0.00 0.00 0.00 40 1019.1
20260507153101 16 334 3.2 4.8 0.00 0.00 0.00 43 1019.3
20260507152556 16 84 1.6 3.2 0.00 0.00 0.00 42 1019.2
20260507152052 16 15 0.0 1.6 0.00 0.00 0.00 43 1019.3
20260507151548 16 220 6.4 9.7 0.00 0.00 0.00 43 1019.4
20260507151045 16 203 8.0 12.9 0.00 0.00 0.00 44 1019.6
20260507150542 16 18 1.6 3.2 0.00 0.00 0.00 42 1019.5
20260507150039 16 58 1.6 1.6 0.00 0.00 0.00 43 1019.6
20260507145533 15 206 3.2 4.8 0.00 0.00 0.00 44 1019.5
20260507145032 15 224 8.0 9.7 0.00 0.00 0.00 43 1019.5
20260507144528 16 336 1.6 3.2 0.00 0.00 0.00 43 1019.4
20260507144026 15 31 1.6 1.6 0.00 0.00 0.00 45 1019.5
20260507143523 15 34 4.8 4.8 0.00 0.00 0.00 46 1019.4
20260507143020 15 111 3.2 4.8 0.00 0.00 0.00 47 1019.5
20260507142515 15 74 4.8 6.4 0.00 0.00 0.00 49 1019.4
20260507142013 15 244 6.4 6.4 0.00 0.00 0.00 48 1019.6
20260507141508 15 187 8.0 9.7 0.00 0.00 0.00 49 1019.5
20260507141007 14 212 6.4 6.4 0.00 0.00 0.00 49 1019.5
20260507140502 13 89 3.2 3.2 0.00 0.00 0.00 50 1019.6
20260507135959 13 111 6.4 9.7 0.00 0.00 0.00 49 1019.7
20260507135456 13 87 4.8 4.8 0.00 0.00 0.00 48 1019.6
20260507134953 13 53 3.2 4.8 0.00 0.00 0.00 48 1019.8
20260507134450 13 166 4.8 4.8 0.00 0.00 0.00 50 1019.6
20260507133946 12 97 4.8 6.4 0.00 0.00 0.00 50 1019.6
20260507133442 13 195 6.4 6.4 0.00 0.00 0.00 51 1019.7
20260507132941 12 56 3.2 3.2 0.00 0.00 0.00 52 1019.7
20260507132436 12 96 4.8 4.8 0.00 0.00 0.00 52 1019.6
20260507131933 12 178 3.2 4.8 0.00 0.00 0.00 52 1019.7
20260507131430 12 185 6.4 9.7 0.00 0.00 0.00 52 1019.7
20260507130927 11 142 3.2 3.2 0.00 0.00 0.00 54 1019.7
20260507130424 11 352 3.2 3.2 0.00 0.00 0.00 55 1019.5
20260507125923 11 197 3.2 4.8 0.00 0.00 0.00 55 1019.5
20260507125420 11 91 3.2 3.2 0.00 0.00 0.00 56 1019.5
20260507124918 10 139 3.2 4.8 0.00 0.00 0.00 59 1019.4
20260507124413 10 80 3.2 3.2 0.00 0.00 0.00 58 1019.3
20260507123912 10 98 3.2 3.2 0.00 0.00 0.00 62 1019.2
20260507123409 9 135 3.2 4.8 0.00 0.00 0.00 63 1019.4
20260507122906 9 105 4.8 4.8 0.00 0.00 0.00 65 1019.4
20260507122400 8 133 3.2 3.2 0.00 0.00 0.00 68 1019.3
20260507121857 8 109 3.2 4.8 0.00 0.00 0.00 72 1019.3
20260507121352 7 81 3.2 3.2 0.00 0.00 0.00 74 1019.4
20260507120850 7 43 0.0 1.6 0.00 0.00 0.00 78 1019.5
20260507120346 6 42 0.0 0.0 0.00 0.00 0.00 81 1019.3
20260507115842 6 27 0.0 0.0 0.00 0.00 0.00 83 1019.2
20260507115338 6 27 0.0 0.0 0.00 0.00 0.00 84 1019.3
20260507114834 6 27 0.0 0.0 0.00 0.00 0.00 85 1019.3
20260507114331 6 27 0.0 0.0 0.00 0.00 0.00 84 1019.1
20260507113829 6 27 0.0 0.0 0.00 0.00 0.00 84 1019.2
20260507113325 6 27 0.0 0.0 0.00 0.00 0.00 83 1019.3
20260507112823 6 27 0.0 0.0 0.00 0.00 0.00 82 1019.0
20260507112320 6 27 0.0 0.0 0.00 0.00 0.00 81 1019.1
20260507111818 6 27 0.0 0.0 0.00 0.00 0.00 80 1018.9
20260507111314 6 28 0.0 0.0 0.00 0.00 0.00 79 1019.0
20260507110810 7 27 0.0 0.0 0.00 0.00 0.00 80 1019.1
20260507110307 7 22 0.0 0.0 0.00 0.00 0.00 78 1019.1
20260507105804 7 28 0.0 0.0 0.00 0.00 0.00 77 1019.1
20260507105300 7 36 0.0 0.0 0.00 0.00 0.00 76 1018.9
20260507104757 7 49 1.6 1.6 0.00 0.00 0.00 75 1018.9
20260507104253 8 46 0.0 0.0 0.00 0.00 0.00 74 1018.8
20260507103750 8 50 1.6 1.6 0.00 0.00 0.00 74 1018.9
20260507103246 8 91 3.2 3.2 0.00 0.00 0.00 75 1018.7
20260507102742 8 53 1.6 1.6 0.00 0.00 0.00 75 1018.8
20260507102239 7 54 1.6 1.6 0.00 0.00 0.00 76 1018.7
20260507101735 7 54 1.6 1.6 0.00 0.00 0.00 77 1018.8
20260507101231 7 112 4.8 4.8 0.00 0.00 0.00 78 1018.7
20260507100728 7 59 1.6 3.2 0.00 0.00 0.00 84 1018.8
20260507100226 7 44 1.6 1.6 0.00 0.00 0.00 88 1018.9
20260507095724 7 23 0.0 0.0 0.00 0.00 0.00 90 1018.9
20260507095220 7 23 0.0 0.0 0.00 0.00 0.00 91 1018.9
20260507094717 7 19 0.0 0.0 0.00 0.00 0.00 91 1019.0
20260507094214 7 19 0.0 0.0 0.00 0.00 0.00 91 1019.0
20260507093711 7 19 0.0 0.0 0.00 0.00 0.00 92 1018.8
20260507093210 7 24 0.0 0.0 0.00 0.00 0.00 92 1018.9
20260507092706 7 24 0.0 0.0 0.00 0.00 0.00 93 1018.9
20260507092203 6 28 0.0 0.0 0.00 0.00 0.00 93 1018.6
20260507091659 6 25 0.0 0.0 0.00 0.00 0.00 94 1018.8
20260507091156 6 20 0.0 0.0 0.00 0.00 0.00 94 1018.8
20260507090651 6 23 0.0 0.0 0.00 0.00 0.00 94 1019.0
20260507090149 6 17 0.0 0.0 0.00 0.00 0.00 94 1019.0
20260507085645 6 11 0.0 0.0 0.00 0.00 0.00 95 1019.1
20260507085142 5 19 0.0 0.0 0.00 0.00 0.00 95 1019.0
20260507084639 5 26 0.0 0.0 0.00 0.00 0.00 95 1018.9
20260507084136 5 29 0.0 0.0 0.00 0.00 0.00 95 1019.0
20260507083633 5 27 0.0 0.0 0.00 0.00 0.00 95 1019.0
20260507083129 5 10 0.0 0.0 0.00 0.00 0.00 94 1019.1
20260507082625 5 10 0.0 0.0 0.00 0.00 0.00 94 1019.1
20260507082122 5 10 0.0 0.0 0.00 0.00 0.00 94 1019.1
20260507081618 5 10 0.0 0.0 0.00 0.00 0.00 94 1019.0
20260507081115 5 11 0.0 0.0 0.00 0.00 0.00 94 1019.1
20260507080611 5 16 0.0 0.0 0.00 0.00 0.00 94 1018.9
20260507080108 4 12 0.0 0.0 0.00 0.00 0.00 93 1019.2
20260507075603 5 12 0.0 0.0 0.00 0.00 0.00 93 1019.0
20260507075059 5 12 0.0 0.0 0.00 0.00 0.00 93 1019.0
20260507074556 5 12 0.0 0.0 0.00 0.00 0.00 92 1019.0
20260507074055 5 13 0.0 0.0 0.00 0.00 0.00 92 1018.8
20260507073550 5 13 0.0 0.0 0.00 0.00 0.00 92 1018.9
20260507073047 5 10 0.0 0.0 0.00 0.00 0.00 91 1019.1
20260507072545 5 9 0.0 0.0 0.00 0.00 0.00 91 1018.8
20260507072041 5 9 0.0 0.0 0.00 0.00 0.00 91 1019.1
20260507071539 5 9 0.0 0.0 0.00 0.00 0.00 91 1019.1
20260507071035 5 14 0.0 0.0 0.00 0.00 0.00 91 1019.2
20260507070533 5 18 0.0 0.0 0.00 0.00 0.00 91 1019.2
20260507070030 5 19 0.0 0.0 0.00 0.00 0.00 90 1019.3
20260507065526 5 20 0.0 0.0 0.00 0.00 0.00 90 1019.0
20260507065023 5 20 0.0 0.0 0.00 0.00 0.00 90 1019.2
20260507064521 5 18 0.0 0.0 0.00 0.00 0.00 89 1019.2
20260507064020 5 18 0.0 0.0 0.00 0.00 0.00 89 1019.1
20260507063516 5 18 0.0 0.0 0.00 0.00 0.00 89 1019.3
20260507063014 5 21 0.0 0.0 0.00 0.00 0.00 89 1019.3
20260507062510 5 16 0.0 0.0 0.00 0.00 0.00 89 1019.2
20260507062008 5 13 0.0 0.0 0.00 0.00 0.00 89 1019.6
20260507061505 5 11 0.0 0.0 0.00 0.00 0.00 89 1019.5
20260507061003 5 5 0.0 0.0 0.00 0.00 0.00 89 1019.5
20260507060500 5 4 0.0 0.0 0.00 0.00 0.00 89 1019.3
20260507055956 5 2 0.0 0.0 0.00 0.00 0.00 89 1019.5
20260507055452 5 14 0.0 0.0 0.00 0.00 0.00 88 1019.4
20260507054949 5 18 0.0 0.0 0.00 0.00 0.00 87 1019.4
20260507054445 6 18 0.0 0.0 0.00 0.00 0.00 86 1019.3
20260507053942 6 19 0.0 0.0 0.00 0.00 0.00 86 1019.4
20260507053440 6 19 0.0 0.0 0.00 0.00 0.00 85 1019.4
20260507052938 6 12 0.0 0.0 0.00 0.00 0.00 84 1019.2
20260507052435 6 12 0.0 0.0 0.00 0.00 0.00 84 1019.3
20260507051932 6 14 0.0 0.0 0.00 0.00 0.00 84 1019.2
20260507051430 6 25 0.0 0.0 0.00 0.00 0.00 84 1019.3
20260507050927 6 25 0.0 0.0 0.00 0.00 0.00 85 1019.4
20260507050423 6 20 0.0 0.0 0.00 0.00 0.00 85 1019.4
20260507045920 6 11 0.0 0.0 0.00 0.00 0.00 85 1019.4
20260507045416 6 10 0.0 0.0 0.00 0.00 0.00 85 1019.4
20260507044914 6 5 0.0 0.0 0.00 0.00 0.00 84 1019.4
20260507044410 6 10 0.0 0.0 0.00 0.00 0.00 82 1019.4
20260507043907 6 9 0.0 0.0 0.00 0.00 0.00 83 1019.6
20260507043403 6 9 0.0 0.0 0.00 0.00 0.00 82 1019.3
20260507042900 7 8 0.0 0.0 0.00 0.00 0.00 82 1019.2
20260507042356 7 359 0.0 0.0 0.00 0.00 0.00 81 1019.4
20260507041852 7 11 0.0 0.0 0.00 0.00 0.00 81 1019.3
20260507041349 7 12 0.0 0.0 0.00 0.00 0.00 80 1019.4
20260507040846 7 10 0.0 0.0 0.00 0.00 0.00 78 1019.3
20260507040342 7 15 0.0 0.0 0.00 0.00 0.00 76 1019.1
20260507035838 7 24 0.0 0.0 0.00 0.03 0.03 76 1019.2
20260507035333 8 20 0.0 0.0 0.00 0.03 0.03 74 1019.2
20260507034832 8 8 0.0 0.0 0.00 0.03 0.03 72 1019.1
20260507034328 8 6 0.0 0.0 0.00 0.03 0.03 70 1019.0
20260507033826 8 10 0.0 0.0 0.00 0.03 0.03 69 1019.0
20260507033324 8 11 0.0 0.0 0.00 0.03 0.03 69 1019.0
20260507032821 9 15 0.0 0.0 0.00 0.03 0.03 68 1019.0
20260507032317 9 10 0.0 0.0 0.00 0.03 0.03 67 1019.2
20260507031814 10 4 0.0 1.6 0.00 0.03 0.03 67 1018.8
20260507031310 10 0 1.6 1.6 0.00 0.03 0.03 67 1019.0
20260507030806 10 7 1.6 1.6 0.00 0.03 0.03 67 1019.1
20260507030305 9 8 0.0 0.0 0.00 0.03 0.03 69 1018.9
20260507025801 9 8 0.0 1.6 0.00 0.03 0.03 71 1019.0
20260507025258 8 11 0.0 1.6 0.00 0.03 0.03 73 1019.0
20260507024756 8 14 0.0 0.0 0.00 0.03 0.03 73 1018.9
20260507024253 8 9 0.0 0.0 0.00 0.03 0.03 76 1018.8
20260507023749 8 12 0.0 0.0 0.00 0.03 0.03 74 1019.0
20260507023246 9 13 0.0 0.0 0.00 0.03 0.03 69 1018.7
20260507022743 9 13 0.0 0.0 0.00 0.03 0.03 67 1018.6
20260507022239 10 13 0.0 0.0 0.00 0.03 0.03 65 1018.8
20260507021736 10 13 0.0 0.0 0.00 0.03 0.03 63 1018.5
20260507021231 10 13 0.0 0.0 0.00 0.03 0.03 61 1018.4
20260507020730 11 12 0.0 0.0 0.00 0.03 0.03 60 1018.6
20260507020226 11 12 0.0 0.0 0.00 0.03 0.03 59 1018.4
20260507015723 11 11 0.0 1.6 0.00 0.03 0.03 58 1018.4
20260507015221 11 12 0.0 0.0 0.00 0.03 0.03 58 1018.3
20260507014717 12 9 1.6 1.6 0.00 0.03 0.03 58 1018.2
20260507014214 12 12 0.0 1.6 0.00 0.03 0.03 56 1018.1
20260507013710 12 1 1.6 1.6 0.00 0.03 0.03 55 1018.1
20260507013208 12 15 3.2 3.2 0.00 0.03 0.03 54 1018.1
20260507012705 12 9 3.2 4.8 0.00 0.03 0.03 53 1018.1
20260507012200 13 11 3.2 3.2 0.00 0.03 0.03 53 1017.9
20260507011658 13 20 1.6 3.2 0.00 0.03 0.03 51 1017.9
20260507011154 13 358 3.2 3.2 0.00 0.03 0.03 56 1017.8
20260507010649 13 6 1.6 1.6 0.00 0.03 0.03 53 1017.5
20260507010145 13 19 1.6 1.6 0.00 0.03 0.03 48 1017.5
20260507005643 14 27 1.6 3.2 0.00 0.03 0.03 48 1017.5
20260507005139 14 26 0.0 1.6 0.00 0.03 0.03 46 1017.5
20260507004636 14 19 3.2 3.2 0.00 0.03 0.03 46 1017.6
20260507004134 15 15 1.6 3.2 0.00 0.03 0.03 45 1017.6
20260507003630 15 346 1.6 3.2 0.00 0.03 0.03 45 1017.4
20260507003124 15 12 6.4 6.4 0.00 0.03 0.03 44 1017.5
20260507002621 15 29 1.6 3.2 0.00 0.03 0.03 44 1017.5
20260507002117 15 345 6.4 9.7 0.00 0.03 0.03 44 1017.6
20260507001614 15 19 4.8 4.8 0.00 0.03 0.03 44 1017.4
20260507001112 15 11 4.8 4.8 0.00 0.03 0.03 45 1017.4
20260507000608 15 35 3.2 4.8 0.00 0.03 0.03 45 1017.2
20260506235601 15 21 11.3 12.9 0.00 0.03 0.03 43 1017.2
20260506235101 15 11 4.8 6.4 0.00 0.03 0.03 43 1017.0
20260506234559 15 14 6.4 11.3 0.00 0.03 0.03 42 1017.0
20260506234055 15 10 6.4 11.3 0.00 0.03 0.03 44 1016.9
20260506233552 15 73 6.4 12.9 0.00 0.03 0.03 43 1016.8
20260506233049 16 11 6.4 6.4 0.00 0.03 0.03 43 1016.6
20260506232545 16 16 4.8 6.4 0.00 0.03 0.03 43 1016.8
20260506232041 16 1 12.9 16.1 0.00 0.03 0.03 43 1016.6
20260506231539 16 15 14.5 17.7 0.00 0.03 0.03 43 1016.6
20260506231036 16 0 9.7 14.5 0.00 0.03 0.03 43 1016.6
20260506230533 16 15 17.7 22.5 0.00 0.03 0.03 43 1016.7
20260506230030 16 327 9.7 16.1 0.00 0.03 0.03 44 1016.6
20260506225527 16 27 12.9 17.7 0.00 0.03 0.03 43 1016.7
20260506225023 16 24 17.7 22.5 0.00 0.03 0.03 42 1016.3
20260506224520 16 9 6.4 9.7 0.00 0.03 0.03 42 1016.4
20260506224017 16 57 1.6 3.2 0.00 0.03 0.03 43 1016.7
20260506223512 16 19 8.0 14.5 0.00 0.03 0.03 42 1016.8
20260506223009 16 3 11.3 14.5 0.00 0.03 0.03 43 1016.7
20260506222506 16 33 6.4 9.7 0.00 0.03 0.03 42 1016.5
20260506222002 16 12 3.2 4.8 0.00 0.03 0.03 42 1016.5
20260506221500 16 347 3.2 4.8 0.00 0.03 0.03 42 1016.6
20260506220958 16 67 3.2 4.8 0.00 0.03 0.03 40 1016.6
20260506220453 16 2 6.4 9.7 0.00 0.03 0.03 39 1016.8
20260506215949 16 5 1.6 3.2 0.00 0.03 0.03 41 1016.9
20260506215446 16 59 1.6 4.8 0.00 0.03 0.03 42 1016.6
20260506214947 16 359 12.9 20.9 0.00 0.03 0.03 43 1016.6
20260506214444 16 349 17.7 20.9 0.00 0.03 0.03 42 1016.8
20260506213942 16 354 9.7 11.3 0.00 0.03 0.03 43 1016.8
20260506213439 16 307 11.3 12.9 0.00 0.03 0.03 43 1016.7
20260506212936 16 341 17.7 20.9 0.00 0.03 0.03 42 1016.8
20260506212432 16 46 14.5 17.7 0.00 0.03 0.03 43 1016.7
20260506211927 16 358 8.0 9.7 0.00 0.03 0.03 42 1016.8
20260506211424 16 39 6.4 6.4 0.00 0.03 0.03 42 1016.9
20260506210921 16 36 6.4 9.7 0.00 0.03 0.03 44 1016.8
20260506210417 16 19 6.4 6.4 0.00 0.03 0.03 42 1016.9
20260506205915 16 80 4.8 6.4 0.00 0.03 0.03 43 1017.0
20260506205410 16 303 9.7 11.3 0.00 0.03 0.03 46 1016.9
20260506204907 16 43 3.2 4.8 0.00 0.03 0.03 46 1017.0
20260506204405 16 4 11.3 14.5 0.00 0.03 0.03 44 1017.0
20260506203902 16 25 4.8 9.7 0.00 0.03 0.03 43 1017.2
20260506203359 16 6 1.6 1.6 0.00 0.03 0.03 44 1017.1
20260506202856 16 358 20.9 27.4 0.00 0.03 0.03 41 1017.4
20260506202353 16 320 4.8 9.7 0.00 0.03 0.03 40 1017.4
20260506201849 16 48 1.6 3.2 0.00 0.03 0.03 43 1017.4
20260506201347 16 334 9.7 14.5 0.00 0.03 0.03 43 1017.4
20260506200843 16 34 6.4 9.7 0.00 0.03 0.03 44 1017.4
20260506200339 16 331 19.3 22.5 0.00 0.03 0.03 42 1017.5
20260506195836 16 317 11.3 14.5 0.00 0.03 0.03 44 1017.3
20260506195333 16 348 8.0 11.3 0.00 0.03 0.03 44 1017.3
20260506194830 16 38 9.7 16.1 0.00 0.03 0.03 42 1017.5
20260506194326 16 39 1.6 3.2 0.00 0.03 0.03 45 1017.6
20260506193824 16 327 6.4 6.4 0.00 0.03 0.03 44 1017.6
20260506193321 16 310 8.0 16.1 0.00 0.03 0.03 44 1017.9
20260506192817 16 18 14.5 16.1 0.00 0.03 0.03 45 1018.0
20260506192314 16 317 9.7 12.9 0.00 0.03 0.03 43 1018.1
20260506191811 15 25 4.8 9.7 0.00 0.03 0.03 45 1018.1
20260506191307 15 352 3.2 3.2 0.00 0.03 0.03 43 1018.1
20260506190804 16 22 12.9 14.5 0.00 0.03 0.03 45 1018.3
20260506190301 15 4 3.2 6.4 0.00 0.03 0.03 44 1018.0
20260506185758 15 58 12.9 14.5 0.00 0.03 0.03 45 1018.2
20260506185254 16 6 6.4 9.7 0.00 0.03 0.03 44 1018.3
20260506184752 15 24 9.7 11.3 0.00 0.03 0.03 44 1018.3
20260506184249 15 2 16.1 25.7 0.00 0.03 0.03 45 1018.3
20260506183746 15 21 6.4 11.3 0.00 0.03 0.03 43 1018.4
20260506183246 15 12 8.0 12.9 0.00 0.03 0.03 45 1018.4
20260506182744 15 36 3.2 9.7 0.00 0.03 0.03 44 1018.5
20260506182241 15 8 9.7 11.3 0.00 0.03 0.03 45 1018.5
20260506181739 15 20 6.4 11.3 0.00 0.03 0.03 45 1018.7
20260506181236 15 339 1.6 4.8 0.00 0.03 0.03 47 1019.0
20260506180733 15 20 12.9 16.1 0.00 0.03 0.03 45 1018.9
20260506180234 15 12 1.6 1.6 0.00 0.03 0.03 42 1018.9
20260506175730 15 14 1.6 1.6 0.00 0.03 0.03 46 1019.2
20260506175227 15 94 3.2 9.7 0.00 0.03 0.03 45 1019.3